星链-37719(STARLINK-37719)

导读

STARLINK-37719(NORAD ID 100013)是美国太空探索技术公司(SpaceX)星链低轨通信星座的成员卫星。该卫星属于星链现有部署批次,运行于低地球轨道,主要承担全球互联网接入服务职能,支持偏远地区、移动场景下的高速网络传输,配备星间激光链路以降低对地面信关站的依赖。截至2026年7月,星链全球在轨卫星超7000颗,该卫星作为星座组网的组成部分,助力星链为全球超900万用户提供低延迟、广覆盖的通信服务,同时具备轨道机动能力以规避空间碎片风险。

基本信息
目录编号:
100013
目录名称:
STARLINK-37719
国际标识:
2026-160N
轨道中心:
EARTH
卫星名称:
星链-37719
卫星全名:
星链-37719(STARLINK-37719)
卫星状态:
在轨 (已飞行59 天)
发射日期:
2026-07-14 UTC
国别 :
美国 (US)
星等 :
--
轨道信息
数据来源 国际轨道数据
星历时间: 2026-09-11T06:48:02+0800
5小时前
查看轨道信息
半长轴: 6715.152km
偏心率: 0.0003371
轨道倾角: 70.000°
近地点辐角 227.862°
升交点赤经 222.146°
平近点角 132.229°
近地点: 334.751km
远地点: 339.279km
周期: 91.273分钟
每日圈数: 15.776806
详细信息
固有亮度:
5
最大亮度:
2.5
卫星平台:
Starlink V1.0
覆盖范围:
全球
运营商:
太空探索技术公司
运营商所在国:
美国
制造商(研发单位):
太空探索技术公司
制造商所在国:
美国
使用方式:
暂无
卫星简介
Starlink 计划是 SpaceX 推出的全球卫星互联网项目,通过发射低轨道卫星,为全球尤其是偏远地区提供高速、低延迟的互联网服务。自 2019 年起,Starlink 已部署数千颗卫星,旨在缩小全球数字鸿沟,推动互联网普及。该项目还为军事、航空等行业提供通信支持,带来广泛经济效益。
2D轨道图
3D轨道图
轨道高度分析图
轨道倾角分析图
轨道综合分析图
查看轨道综合分析图
与全量物体交会距离演化趋势
与全量物体交会风险概率演化趋势